Notices

What's New in latest Release from April 7th, 2021:

- Updated Glossary, including Speed of Maximum Gust, and Total Hourly Precipitation

- Updated national and regional climate services offices contacts and prices information

- Addition of station inventory lists for 1981-2010, 1971-2000, and 1961-1990 Normals.

If you haven't already, please take our survey and provide feedback about our website: https://eccc.sondage-survey.ca/f/LanguageSelection.aspx?s=442ca660-fcf1-47c0-95a9-59707d6fd709

Hourly Data Report for July 19, 2019

TORONTO CITY
ONTARIO
Current Station Operator: ECCC - MSC

43°40'00.000" N
79°24'00.000" W
112.50 m
6158355
71508
XTO

Download Data

Hourly Data (July 2019)
Hourly Data Report for July 19, 2019
TIME
LST
Temp Definition
°C
Dew Point Definition
°C
Rel Hum Definition
%
Precip. Amount Definition
mm

Wind Dir Definition
10's deg

Wind Spd Definition
km/h
Visibility Definition
km
Stn Press Definition
kPa
Hmdx Definition


Wind Chill Definition


Weather Definition


00:00 23.7 20.5 82 0.0       99.59 32   LegendNANA
01:00 23.4 20.4 83 0.0       99.56 31   LegendNANA
02:00 23.2 20.3 84 0.0       99.48 31   LegendNANA
03:00 23.4 19.9 81 0.0       99.48 31   LegendNANA
04:00 23.3 19.8 81 0.0       99.49 31   LegendNANA
05:00 23.1 20.1 83 0.0       99.53 31   LegendNANA
06:00 24.2 20.2 79 0.0       99.54 32   LegendNANA
07:00 25.4 20.7 75 0.0       99.57 34   LegendNANA
08:00 27.2 21.0 69 0.0       99.60 36   LegendNANA
09:00 28.2 21.4 66 0.0       99.64 37   LegendNANA
10:00 28.3 21.2 65 0.0       99.63 37   LegendNANA
11:00 29.5 22.1 64 0.0       99.56 39   LegendNANA
12:00 28.2 22.6 72 0.0       99.67 38   LegendNANA
13:00 27.4 20.6 67 0.0       99.60 35   LegendNANA
14:00 27.1 20.9 69 0.0       99.57 35   LegendNANA
15:00 27.1 20.9 69 0.0       99.58 35   LegendNANA
16:00 28.9 21.4 64 0.0       99.56 38   LegendNANA
17:00 29.7 21.1 60 0.0       99.54 38   LegendNANA
18:00 28.8 21.9 66 0.0       99.52 38   LegendNANA
19:00 28.6 22.5 70 0.0       99.51 38   LegendNANA
20:00 27.8 21.9 70 0.0       99.54 37   LegendNANA
21:00 27.5 21.4 70 0.0       99.61 36   LegendNANA
22:00 27.0 21.4 72 0.0       99.64 36   LegendNANA
23:00 26.5 21.4 74 0.0       99.65 35   LegendNANA

Notes on Data Quality.

Legend

  • E = Estimated
  • M = Missing
  • NA = Not Available*
  • [empty] = Indicates an unobserved value
Date modified: